When you browse on this site, cookies collect data to enhance your experience and personalize the content and advertising you see.
Visit our Privacy Policy to learn more. By continuing to use the site, you agree to this use of cookies and data.
  • In Hungary
  • List of Countries
  • For 7 days
  • Water Temperature
  • Satellite Maps
  • Weather Map
  • News
  • Weather Widgets
  • user-avatar
    Login

    Hourly Weather Mide

    Today, 19 April, Friday

    Time Temperature Precipitation Wind Pressure Humidity
    00:00 +22°C° 0 mm 8 mps 731 mmHg 42%
    01:00 +21°C° 0 mm 8 mps 731 mmHg 44%
    02:00 +19°C° 0 mm 9 mps 731 mmHg 46%
    03:00 +18°C° 0 mm 9 mps 730 mmHg 48%
    04:00 +18°C° 0 mm 10 mps 730 mmHg 50%
    05:00 +18°C° 0 mm 10 mps 730 mmHg 52%
    06:00 +17°C° 0 mm 10 mps 730 mmHg 54%
    07:00 +17°C° 0 mm 11 mps 731 mmHg 55%
    08:00 +19°C° 0 mm 11 mps 731 mmHg 50%
    09:00 +21°C° 0 mm 12 mps 731 mmHg 46%
    10:00 +23°C° 0 mm 12 mps 731 mmHg 41%
    11:00 +24°C° 0 mm 12 mps 731 mmHg 38%
    12:00 +26°C° 0 mm 12 mps 731 mmHg 35%
    13:00 +28°C° 0 mm 12 mps 731 mmHg 31%
    14:00 +28°C° 0 mm 13 mps 730 mmHg 31%
    15:00 +28°C° 0 mm 13 mps 730 mmHg 31%
    16:00 +28°C° 0 mm 13 mps 730 mmHg 31%
    17:00 +26°C° 0 mm 14 mps 729 mmHg 35%
    18:00 +24°C° 0 mm 14 mps 729 mmHg 39%
    19:00 +22°C° 0 mm 14 mps 729 mmHg 43%
    20:00 +20°C° 0 mm 14 mps 729 mmHg 46%
    21:00 +19°C° 0 mm 14 mps 730 mmHg 50%
    22:00 +18°C° 0 mm 15 mps 730 mmHg 54%
    23:00 +18°C° 0 mm 15 mps 730 mmHg 56%

    Tomorrow, 20 April, Saturday

    Time Temperature Precipitation Wind Pressure Humidity
    00:00 +17°C° 0 mm 14 mps 729 mmHg 58%
    01:00 +17°C° 0 mm 14 mps 729 mmHg 60%
    02:00 +15°C° 0 mm 14 mps 729 mmHg 62%
    03:00 +15°C° 0 mm 14 mps 728 mmHg 63%
    04:00 +15°C° 0 mm 13 mps 728 mmHg 65%
    05:00 +15°C° 0 mm 13 mps 728 mmHg 65%
    06:00 +15°C° 0 mm 13 mps 728 mmHg 65%
    07:00 +15°C° 0 mm 13 mps 728 mmHg 65%
    08:00 +17°C° 0 mm 13 mps 728 mmHg 58%
    09:00 +19°C° 0 mm 14 mps 728 mmHg 51%
    10:00 +22°C° 0 mm 14 mps 728 mmHg 44%
    11:00 +23°C° 0 mm 14 mps 728 mmHg 41%
    12:00 +24°C° 0 mm 14 mps 727 mmHg 37%
    13:00 +27°C° 0 mm 14 mps 727 mmHg 34%
    14:00 +27°C° 0 mm 14 mps 726 mmHg 33%
    15:00 +28°C° 0 mm 13 mps 726 mmHg 32%
    16:00 +28°C° 0 mm 13 mps 725 mmHg 31%
    17:00 +26°C° 0 mm 13 mps 725 mmHg 35%
    18:00 +24°C° 0 mm 13 mps 725 mmHg 39%
    19:00 +23°C° 0 mm 13 mps 725 mmHg 43%
    20:00 +20°C° 0 mm 13 mps 725 mmHg 47%
    21:00 +19°C° 0 mm 12 mps 726 mmHg 52%
    22:00 +18°C° 0 mm 12 mps 726 mmHg 56%
    23:00 +18°C° 0 mm 12 mps 726 mmHg 59%

    Day after tomorrow, 21 April, Sunday

    Time Temperature Precipitation Wind Pressure Humidity
    00:00 +17°C° 0 mm 12 mps 725 mmHg 61%
    01:00 +17°C° 0 mm 12 mps 725 mmHg 64%
    02:00 +15°C° 0 mm 12 mps 724 mmHg 65%
    03:00 +15°C° 0 mm 12 mps 724 mmHg 66%
    04:00 +15°C° 0 mm 12 mps 723 mmHg 67%
    05:00 +15°C° 0 mm 12 mps 723 mmHg 65%
    06:00 +16°C° 0 mm 11 mps 723 mmHg 64%
    07:00 +16°C° 0 mm 11 mps 723 mmHg 62%
    08:00 +18°C° 0 mm 11 mps 723 mmHg 54%
    09:00 +21°C° 0 mm 11 mps 723 mmHg 47%
    10:00 +23°C° 0 mm 10 mps 723 mmHg 39%
    11:00 +26°C° 0 mm 9 mps 723 mmHg 33%
    12:00 +28°C° 0 mm 8 mps 722 mmHg 28%
    13:00 +32°C° 0 mm 7 mps 722 mmHg 22%
    14:00 +33°C° 0 mm 7 mps 722 mmHg 18%
    15:00 +35°C° 0 mm 7 mps 721 mmHg 13%
    16:00 +36°C° 0 mm 7 mps 721 mmHg 9%
    17:00 +35°C° 0 mm 6 mps 721 mmHg 9%
    18:00 +34°C° 0 mm 5 mps 720 mmHg 9%
    19:00 +33°C° 0 mm 4 mps 720 mmHg 9%
    20:00 +32°C° 0 mm 4 mps 720 mmHg 12%
    21:00 +30°C° 0 mm 4 mps 720 mmHg 15%
    22:00 +29°C° 0 mm 5 mps 720 mmHg 18%
    23:00 +27°C° 0 mm 5 mps 720 mmHg 27%

    22 April, Monday

    Time Temperature Precipitation Wind Pressure Humidity
    00:00 +25°C° 0 mm 5 mps 720 mmHg 37%
    01:00 +22°C° 0 mm 6 mps 720 mmHg 47%
    02:00 +22°C° 0 mm 4 mps 720 mmHg 44%
    03:00 +22°C° 0 mm 3 mps 719 mmHg 41%
    04:00 +23°C° 0 mm 2 mps 719 mmHg 39%
    05:00 +22°C° 0 mm 3 mps 718 mmHg 34%
    06:00 +22°C° 0 mm 5 mps 718 mmHg 30%
    07:00 +22°C° 0 mm 6 mps 718 mmHg 26%
    08:00 +22°C° 0 mm 8 mps 719 mmHg 29%
    09:00 +23°C° 0 mm 9 mps 719 mmHg 31%
    10:00 +24°C° 0 mm 11 mps 719 mmHg 34%
    11:00 +24°C° 0 mm 11 mps 719 mmHg 32%
    12:00 +26°C° 0 mm 12 mps 720 mmHg 30%
    13:00 +26°C° 0 mm 12 mps 720 mmHg 28%
    14:00 +27°C° 0 mm 12 mps 720 mmHg 27%
    15:00 +27°C° 0 mm 12 mps 720 mmHg 25%
    16:00 +27°C° 0 mm 12 mps 720 mmHg 24%
    17:00 +27°C° 0 mm 11 mps 720 mmHg 26%
    18:00 +26°C° 0 mm 10 mps 721 mmHg 27%
    19:00 +26°C° 0 mm 9 mps 721 mmHg 29%
    20:00 +24°C° 0 mm 8 mps 722 mmHg 32%
    21:00 +23°C° 0 mm 6 mps 722 mmHg 35%
    22:00 +22°C° 0 mm 5 mps 723 mmHg 38%
    23:00 +21°C° 0 mm 4 mps 723 mmHg 39%

    23 April, Tuesday

    Time Temperature Precipitation Wind Pressure Humidity
    00:00 +21°C° 0 mm 3 mps 723 mmHg 40%
    01:00 +20°C° 0 mm 2 mps 723 mmHg 40%
    02:00 +20°C° 0 mm 2 mps 723 mmHg 42%
    03:00 +20°C° 0 mm 1 mps 723 mmHg 43%
    04:00 +20°C° 0 mm 1 mps 723 mmHg 44%
    05:00 +20°C° 0 mm 1 mps 723 mmHg 44%
    06:00 +20°C° 0 mm 1 mps 724 mmHg 43%
    07:00 +20°C° 0 mm 1 mps 724 mmHg 43%
    08:00 +22°C° 0 mm 1 mps 725 mmHg 39%
    09:00 +23°C° 0 mm 1 mps 725 mmHg 35%
    10:00 +24°C° 0 mm 2 mps 726 mmHg 31%
    11:00 +25°C° 0 mm 2 mps 726 mmHg 28%
    12:00 +26°C° 0 mm 3 mps 726 mmHg 26%
    13:00 +28°C° 0 mm 4 mps 726 mmHg 24%
    14:00 +28°C° 0 mm 4 mps 725 mmHg 22%
    15:00 +29°C° 0 mm 4 mps 725 mmHg 21%
    16:00 +29°C° 0 mm 4 mps 725 mmHg 19%
    17:00 +29°C° 0 mm 3 mps 725 mmHg 20%
    18:00 +28°C° 0 mm 2 mps 725 mmHg 20%
    19:00 +28°C° 0 mm 1 mps 726 mmHg 21%
    20:00 +27°C° 0 mm 2 mps 726 mmHg 22%
    21:00 +26°C° 0 mm 2 mps 726 mmHg 23%
    22:00 +26°C° 0 mm 2 mps 727 mmHg 24%
    23:00 +25°C° 0 mm 3 mps 726 mmHg 24%

    24 April, Wednesday

    Time Temperature Precipitation Wind Pressure Humidity
    00:00 +25°C° 0 mm 4 mps 726 mmHg 24%
    01:00 +25°C° 0 mm 5 mps 726 mmHg 25%
    02:00 +23°C° 0 mm 5 mps 725 mmHg 26%
    03:00 +23°C° 0 mm 6 mps 725 mmHg 27%
    04:00 +22°C° 0 mm 7 mps 725 mmHg 29%
    05:00 +22°C° 0 mm 7 mps 725 mmHg 29%
    06:00 +22°C° 0 mm 8 mps 725 mmHg 30%
    07:00 +22°C° 0 mm 8 mps 725 mmHg 30%
    08:00 +24°C° 0 mm 9 mps 725 mmHg 29%
    09:00 +27°C° 0 mm 10 mps 725 mmHg 27%
    10:00 +28°C° 0 mm 11 mps 725 mmHg 25%
    11:00 +29°C° 0 mm 10 mps 725 mmHg 24%
    12:00 +32°C° 0 mm 9 mps 725 mmHg 23%
    13:00 +33°C° 0 mm 8 mps 724 mmHg 23%
    14:00 +33°C° 0 mm 8 mps 724 mmHg 18%
    15:00 +34°C° 0 mm 8 mps 724 mmHg 13%
    16:00 +35°C° 0 mm 8 mps 724 mmHg 7%
    17:00 +34°C° 0 mm 6 mps 725 mmHg 8%
    18:00 +33°C° 0 mm 5 mps 725 mmHg 9%
    19:00 +32°C° 0 mm 4 mps 725 mmHg 10%
    20:00 +30°C° 0 mm 3 mps 726 mmHg 13%
    21:00 +29°C° 0 mm 3 mps 727 mmHg 16%
    22:00 +27°C° 0 mm 3 mps 728 mmHg 18%
    23:00 +26°C° 0 mm 4 mps 728 mmHg 33%
    Show more